Location: Newark
(19.8968°N, 89.5281°W)
Time: 05:04:23
(UTC+00:00)

Falcon 9 debris - Visible Passes

Search period start: 23 July 2019 00:00
Search period end: 02 August 2019 00:00
Orbit: 431 x 439 km, 53.0° (Epoch: 22 July)

Date Brightness Start Highest point End Pass type
(mag) Time Alt. Az. Time Alt. Az. Time Alt. Az.
27 Jul 3.2 01:46:46 10° SSW 01:50:07 49° SE 01:51:50 25° ENE visible
28 Jul 4.1 01:05:00 10° S 01:07:54 26° SE 01:10:50 10° ENE visible
28 Jul 6.4 02:42:57 10° W 02:44:53 14° NW 02:46:50 10° NNW visible
28 Jul 5.1 10:57:56 10° NNW 11:01:06 34° NE 11:04:15 10° ESE visible
29 Jul 5.7 01:59:41 10° WSW 02:02:32 24° NW 02:05:24 10° N visible
29 Jul 6.0 10:16:12 10° N 10:18:47 20° NE 10:21:21 10° E visible
30 Jul 4.5 01:16:56 10° SW 01:20:14 43° NW 01:23:33 10° NNE visible
30 Jul 6.6 09:35:05 10° NNE 09:36:26 12° NE 09:37:45 10° ENE visible
31 Jul 3.0 10:27:51 10° NW 10:31:14 63° SW 10:34:37 10° SSE visible
01 Aug 4.5 09:50:23 32° ESE 09:50:23 32° ESE 09:52:23 10° SE visible
